Weather in Makhnyovo

Russia / Sverdlovsk Oblast     58°26′54″N   61°42′34″E
temp.,
°C
wind,
m/s
gust,
m/s
humid.,
%
clouds,
%
prec.,
mm/h
press.,
hPa
HPBL,
m
6 may, thu
thu623:00+9wnw51088100 5.9 997899
02:00+8w510785 2.7 9981017
05:00+6w612805 2.7 1000890
08:00+7w6117377 0.0 10011225
11:00+7w61165100 0.1 10041535
14:00+9wnw71046100 0.1 10062188
17:00+10w61046100 0.1 10092137
20:00+7w611555 0.0 10111410
7 may, fri
fri723:00+5w413633 0.0 10141077
02:00+3w413720 0.0 1015504
05:00+2wsw310785 0.0 1017215
08:00+9wsw4105651 0.0 1017443
11:00+14wsw5750100 0.0 10171022
14:00+19wsw594251 0.0 10172145
17:00+17wsw594812 0.0 1017885
20:00+15sw51056100 0.0 1017455
8 may, sat
sat823:00+11sw287529 0.0 1018156
02:00+11sw2875100 0.0 1019176
05:00+10sw227886 0.0 101943
08:00+12sw2669100 0.0 1019147
11:00+19wsw3538100 0.0 10192212
14:00+19w2439100 0.0 10182084
17:00+19wnw2340100 0.0 1018961
20:00+15n246099 0.0 101970
9 may, sun
sun923:00+12ne2573100 0.0 1019100
02:00+11ene2381100 0.0 102076
05:00+10ne2585100 0.0 102096
08:00+14ne3567100 0.0 1020312
11:00+19ene334780 0.0 10201285
14:00+20e2337100 0.0 10192331
17:00+19e244797 0.0 1019419
20:00+16ene235721 0.0 102046
10 may, mon
mon1023:00+14ene246594 0.0 102174
02:00+13e226791 0.0 102157
05:00+11ese22765 0.0 102230
08:00+16sse12565 0.0 1022262
11:00+21sse2237100 0.0 10221666
14:00+23sw3432100 0.0 10212602
17:00+21wsw3639100 0.0 1021497
20:00+17nw61158100 0.0 1022688